Flag for Switzerland Weather past 2 weeks in La-Chaux-de-Fonds, Neuchâtel, Switzerland

Now
55 °F

Sprinkles. Partly sunny.


Feels Like: 54 °F
Forecast: 52 / 62 °F
Wind: 6 mph from North

Location: Les Eplatures

Current Time: Jul 25, 2014 at 8:24:23 PM

Latest Report: Jul 25, 2014 at 7:50 PM


Visibility: N/A

Pressure: 30.01 "Hg

Humidity: 82%

Dew point: 50 °F

Location of La-Chaux-de-FondsLocation

Historic Weather in La-Chaux-de-Fonds — Graph

°F

La-Chaux-de-Fonds temperature yesterday

Maximum temperature yesterday: 72 °F (at 2:50 PM)
Minimum temperature yesterday: 54 °F (at 4:20 AM)
Average temperature yesterday: 62 °F

Past Weeks' High & Low Weather Summary

 TemperatureHumidityPressure
High84 °F (Jul 19, 2:50 PM)100% (Jul 10, 7:20 PM)30.27 "Hg (Jul 10, 7:20 PM)
Low46 °F (Jul 15, 5:50 AM)26% (Jul 18, 12:20 PM)29.95 "Hg (Jul 20, 5:20 PM)
Average60 °F81%30.08 "Hg
* Reported Jul 10 7:20 PM — Jul 25 7:20 PM, La-Chaux-de-Fonds, Weather by CustomWeather, © 2014

Note: Actual official high and low records may vary slightly from our data, if they occured in-between our weather recording intervals... More about our weather records

Advertising

La-Chaux-de-Fonds weather history for previous 24 hours

 ConditionsComfort  
Time TempWeatherWind HumidityBarometerVisibility
7:20 PM
Jul 25
55 °FPassing clouds.3 mph94%30.01 "HgN/A
6:50 PM54 °FSprinkles. Scattered clouds.5 mph100%30.01 "HgN/A
6:20 PM54 °FThundershowers. Partly sunny.6 mph94%30.01 "HgN/A
5:50 PM55 °FThunderstorms. Partly sunny.5 mph88%30.01 "HgN/A
5:20 PM55 °FThunderstorms. Broken clouds.5 mph94%30.01 "Hg2 mi
4:50 PM57 °FStrong thunderstorms. Partly sunny.9 mph88%29.98 "Hg6 mi
4:20 PM68 °FThunderstorms. Scattered clouds.5 mph56%29.98 "HgN/A
3:50 PM70 °FThundershowers. Scattered clouds.5 mph53%29.98 "HgN/A
3:20 PM70 °FBroken clouds.2 mph50%30.01 "HgN/A
2:20 PM70 °FThundershowers. Scattered clouds.6 mph53%30.01 "HgN/A
1:50 PM72 °FScattered clouds.8 mph50%30.01 "HgN/A
1:20 PM72 °FPartly sunny.5 mph57%30.01 "HgN/A
12:50 PM72 °FBroken clouds.3 mph50%30.01 "HgN/A
12:20 PM70 °FClear.6 mph60%30.01 "HgN/A
11:50 AM70 °FPassing clouds.5 mph50%30.01 "HgN/A
11:20 AM68 °FPassing clouds.3 mph49%30.01 "HgN/A
10:50 AM68 °FPassing clouds.2 mph56%30.01 "HgN/A
10:20 AM68 °FPassing clouds.5 mph56%30.01 "HgN/A
9:50 AM66 °FPassing clouds.2 mph68%30.01 "HgN/A
9:20 AM66 °FSunny.1 mph64%30.01 "Hg10 mi
8:50 AM61 °FSunny.1 mph83%30.01 "Hg10 mi
8:20 AM59 °FSunny.1 mph88%30.04 "Hg10 mi
7:50 AM55 °FClear.No wind94%30.01 "Hg10 mi
7:20 AM54 °FClear.1 mph94%30.01 "Hg10 mi
6:50 AM50 °FClear.No wind100%30.01 "Hg10 mi
6:20 AM50 °FClear.1 mph100%30.01 "Hg10 mi
5:50 AM50 °FClear.No wind94%30.01 "Hg10 mi
5:20 AM50 °FClear.2 mph94%30.01 "Hg10 mi
4:50 AM50 °FClear.1 mph94%30.01 "Hg10 mi
4:20 AM50 °FClear.No wind94%30.01 "Hg10 mi
3:50 AM52 °FClear.No wind94%30.01 "Hg10 mi
3:20 AM52 °FClear.1 mph94%30.01 "Hg10 mi
2:50 AM50 °FClear.1 mph94%30.01 "Hg10 mi
2:20 AM52 °FClear.No wind88%30.01 "Hg10 mi
1:50 AM52 °FClear.1 mph94%30.01 "Hg10 mi
1:20 AM52 °FClear.No wind94%30.04 "Hg10 mi
12:50 AM54 °FClear.1 mph88%30.04 "Hg10 mi
12:20 AM54 °FClear.No wind88%30.04 "Hg10 mi
11:50 PM
Jul 24
54 °FClear.No wind94%30.04 "Hg10 mi
11:20 PM55 °FFog.1 mph88%30.04 "Hg1 mi
10:50 PM55 °FSunny.2 mph88%30.04 "Hg10 mi
10:20 PM57 °FCool.1 mph82%30.04 "HgN/A
9:50 PM57 °FSunny.2 mph88%30.01 "Hg10 mi
9:20 PM59 °FCool.3 mph82%30.01 "HgN/A
8:50 PM61 °FCool.2 mph77%30.01 "HgN/A
8:20 PM63 °FSunny.1 mph77%30.01 "Hg10 mi
Weather by CustomWeather, © 2014

See weather overviewHow to use our weather pages